Location: Puketoi
(40.5833°S, 176.0167°E)
Time: 14:14:55
(UTC+00:00)

Cosmos 1140 Rocket - Pass Details

Date: 08 February 2023
Orbit: 744 x 766 km, 74.1° (Epoch: 23 March)

Event Time Altitude Azimuth Distance (km) Brightness Sun altitude
Exits shadow 16:28:21 - 348° (NNW) 2,724 5.9 -11.8°
Reaches altitude 10° 16:29:29 10° 348° (NNW) 2,286 5.6 -11.6°
Maximum altitude 16:34:40 76° 73° (ENE) 794 3.7 -10.8°
Drops below altitude 10° 16:39:57 10° 158° (SSE) 2,330 6.8 -9.9°
Sets 16:42:22 0° 159° (SSE) 3,266 7.6 -9.5°
